EW9741 Weather Reports


Display with metric or nautical units.
time (UTC)temp
F
wind
direction
speed
MPH
gust
MPH
rain 1hr
in
rain 24hr
in
rain mn
in
humidity
%
barometer
mb
20260831001510 82 173 0.0 0.0 0.00 0.00 0.00 62 1016.9
20260831000007 83 205 0.0 0.0 0.00 0.00 0.00 61 1016.9
20260830234503 84 217 0.0 0.0 0.00 0.00 0.00 57 1016.9
20260830233105 85 194 0.0 0.0 0.00 0.00 0.00 56 1016.7
20260830231559 87 178 0.0 0.0 0.00 0.00 0.00 55 1016.5
20260830230058 87 215 0.0 0.0 0.00 0.00 0.00 54 1016.4
20260830224558 86 170 0.0 0.0 0.00 0.00 0.00 54 1016.5
20260830223111 86 156 0.0 0.0 0.00 0.00 0.00 53 1016.4
20260830221556 86 142 0.0 0.0 0.00 0.00 0.00 52 1016.2
20260830220055 86 223 0.0 0.0 0.00 0.00 0.00 52 1016.5
20260830214606 87 212 0.0 0.0 0.00 0.00 0.00 50 1016.5
20260830213046 88 245 0.0 0.0 0.00 0.00 0.00 50 1016.5
20260830211543 87 162 0.0 0.0 0.00 0.00 0.00 50 1016.6
20260830210039 89 268 0.0 0.0 0.00 0.00 0.00 49 1016.8
20260830204536 88 137 0.0 0.0 0.00 0.00 0.00 48 1017.0
20260830203031 88 127 0.0 0.0 0.00 0.00 0.00 50 1017.2
20260830201526 89 287 0.0 0.0 0.00 0.00 0.00 46 1017.4
20260830200040 88 119 0.0 0.0 0.00 0.00 0.00 48 1017.6
20260830194521 87 314 0.0 0.0 0.00 0.00 0.00 48 1017.8
20260830193017 87 297 0.0 0.0 0.00 0.00 0.00 48 1018.2
20260830191512 86 302 0.0 6.0 0.00 0.00 0.00 49 1018.5
20260830190021 87 295 0.0 0.0 0.00 0.00 0.00 51 1018.7
20260830184504 87 269 0.0 9.0 0.00 0.00 0.00 48 1018.9
20260830183114 86 261 0.0 0.0 0.00 0.00 0.00 49 1019.0
20260830181557 88 326 0.0 0.0 0.00 0.00 0.00 48 1019.1
20260830180054 87 245 1.0 12.0 0.00 0.00 0.00 48 1019.3
20260830174603 86 307 0.0 5.0 0.00 0.00 0.00 48 1019.4
20260830173045 87 260 0.0 0.0 0.00 0.00 0.00 49 1019.5
20260830171542 87 326 0.0 0.0 0.00 0.00 0.00 49 1019.6
20260830170037 87 282 0.0 0.0 0.00 0.00 0.00 51 1019.6
20260830164534 86 342 0.0 7.0 0.00 0.00 0.00 53 1019.6
20260830163034 86 316 0.0 0.0 0.00 0.00 0.00 59 1019.6
20260830161527 85 273 0.0 0.0 0.00 0.00 0.00 61 1019.6
20260830160025 84 296 0.0 0.0 0.00 0.00 0.00 63 1019.5
20260830154518 83 217 0.0 0.0 0.00 0.00 0.00 66 1019.6
20260830153014 82 175 0.0 0.0 0.00 0.00 0.00 66 1019.4
20260830151510 82 240 0.0 0.0 0.00 0.00 0.00 68 1019.4
20260830150010 81 141 0.0 0.0 0.00 0.00 0.00 68 1019.3
20260830144504 81 211 0.0 0.0 0.00 0.00 0.00 69 1019.2
20260830143107 80 221 0.0 0.0 0.00 0.00 0.00 70 1019.0
20260830141559 79 244 0.0 0.0 0.00 0.00 0.00 73 1018.9
20260830140051 78 248 0.0 0.0 0.00 0.00 0.00 74 1018.6
20260830134549 77 217 0.0 0.0 0.00 0.00 0.00 74 1018.6
20260830133044 77 205 0.0 0.0 0.00 0.00 0.00 75 1018.7
20260830131539 76 169 0.0 0.0 0.00 0.00 0.00 75 1018.8
20260830130041 75 155 0.0 0.0 0.00 0.00 0.00 79 1018.9
20260830124534 73 132 0.0 0.0 0.00 0.00 0.00 80 1019.0
20260830123029 72 132 0.0 0.0 0.00 0.00 0.00 82 1019.0
20260830121530 70 132 0.0 0.0 0.00 0.00 0.00 86 1019.0
20260830120025 68 139 0.0 0.0 0.00 0.00 0.00 89 1018.7
20260830114518 0 0.0 0.0 0.00 0.00 0.00 1018.6
20260830113016 0 0.0 0.0 0.00 0.00 0.00 1018.5
20260830111510 0 0.0 0.0 0.00 0.00 0.00 1018.4
20260830110005 0 0.0 0.0 0.00 0.00 0.00 1018.4
20260830104506 0 0.0 0.0 0.00 0.00 0.00 1018.4
20260830103058 -90 146 0.0 0.0 0.00 0.00 0.00 89 1018.4
20260830101556 67 143 0.0 0.0 0.00 0.00 0.00 89 1018.3
20260830100056 67 143 0.0 0.0 0.00 0.00 0.00 88 1018.3
20260830094555 68 143 0.0 0.0 0.00 0.00 0.00 88 1018.2
20260830093100 68 150 0.0 0.0 0.00 0.00 0.00 87 1018.2
20260830091553 69 144 0.0 0.0 0.00 0.00 0.00 87 1018.2
20260830090053 69 142 0.0 0.0 0.00 0.00 0.00 87 1018.2
20260830084552 69 142 0.0 0.0 0.00 0.00 0.00 86 1018.1
20260830083102 69 148 0.0 0.0 0.00 0.00 0.00 86 1018.3
20260830081554 69 149 0.0 0.0 0.00 0.00 0.00 86 1018.3
20260830080051 69 145 0.0 0.0 0.00 0.00 0.00 86 1018.3
20260830074552 69 146 0.0 0.0 0.00 0.00 0.00 86 1018.4
20260830073100 70 146 0.0 0.0 0.00 0.00 0.00 86 1018.5
20260830071551 70 149 0.0 0.0 0.00 0.00 0.00 85 1018.6
20260830070051 71 141 0.0 0.0 0.00 0.00 0.00 84 1018.7
20260830064550 70 143 0.0 0.0 0.00 0.00 0.00 87 1018.8
20260830063107 69 146 0.0 6.0 0.00 0.00 0.00 88 1018.9
20260830061553 69 148 0.0 0.0 0.00 0.00 0.00 88 1019.0
20260830060053 69 148 0.0 0.0 0.00 0.00 0.00 88 1018.9
20260830054548 69 148 0.0 0.0 0.00 0.00 0.00 88 1019.0
20260830053048 69 148 0.0 0.0 0.00 0.00 0.00 88 1018.9
20260830051549 69 148 0.0 0.0 0.00 0.00 0.00 87 1018.8
20260830050046 69 148 0.0 0.0 0.00 0.00 0.00 87 1018.8
20260830044547 69 148 0.0 0.0 0.00 0.00 0.00 87 1018.8
20260830043045 70 148 0.0 0.0 0.00 0.00 0.00 86 1018.7
20260830041548 69 148 0.0 0.0 0.00 0.00 0.00 87 1018.8
20260830040047 69 141 0.0 0.0 0.00 0.00 0.00 86 1018.7
20260830034548 70 141 0.0 0.0 0.00 0.00 0.00 85 1018.8
20260830033041 70 141 0.0 0.0 0.00 0.00 0.00 84 1018.8
20260830031542 70 137 0.0 0.0 0.00 0.00 0.00 82 1018.6
20260830030041 70 143 0.0 0.0 0.00 0.00 0.00 82 1018.7
20260830024539 71 143 0.0 0.0 0.00 0.00 0.00 81 1018.6
20260830023038 71 143 0.0 0.0 0.00 0.00 0.00 79 1018.6
20260830021536 71 143 0.0 0.0 0.00 0.00 0.00 79 1018.6
20260830020035 72 143 0.0 0.0 0.00 0.00 0.00 79 1018.5
20260830014548 72 143 0.0 0.0 0.00 0.00 0.00 76 1018.5
20260830013029 73 143 0.0 0.0 0.00 0.00 0.00 74 1018.3
20260830011527 74 143 0.0 0.0 0.00 0.00 0.00 72 1018.2
20260830010026 74 143 0.0 0.0 0.00 0.00 0.00 74 1018.0
20260830004524 75 143 0.0 0.0 0.00 0.00 0.00 72 1018.1
20260830003022 76 143 0.0 0.0 0.00 0.00 0.00 72 1018.1